PLF044 EPWA-LOWI

Flight info

Callsign PLF044
Flight time 1h 46m
Altitude 22000
Route SOXER DCT VAMPU DCT BAXIS DCT UVIVI DCT VAGSA DCT ELVOT DCT BUDEX DCT VELOM DCT ERANI DCT NANIT NANIT2A
Aircraft YK40/M-SDFIRWY/H

Departure

Time 2026-05-05 15:43
Airport Warsaw Chopin Airport (EPWA)

Arrival

Time 2026-05-05 17:29
Airport Innsbruck Airport (LOWI)
Time Latitude Longitude Altitude Speed Heading
2026-05-05 15:22 52.17670 20.97207 347 ft 0 kts 82°
2026-05-05 15:27 52.17670 20.97208 347 ft 0 kts 82°
2026-05-05 15:28 52.17670 20.97207 347 ft 0 kts 82°
2026-05-05 15:28 52.17668 20.97185 346 ft 2 kts 81°
2026-05-05 15:29 52.17666 20.97161 346 ft 2 kts 80°
2026-05-05 15:29 52.17664 20.97137 345 ft 2 kts 80°
2026-05-05 15:29 52.17661 20.97121 345 ft 1 kts 49°
2026-05-05 15:29 52.17652 20.97115 345 ft 1 kts 351°
2026-05-05 15:30 52.17642 20.97125 345 ft 2 kts 327°
2026-05-05 15:30 52.17633 20.97133 345 ft 0 kts 328°
2026-05-05 15:36 52.17635 20.97132 345 ft 1 kts 328°
2026-05-05 15:37 52.17659 20.97107 345 ft 7 kts 324°
2026-05-05 15:37 52.17667 20.96989 343 ft 16 kts 237°
2026-05-05 15:37 52.17598 20.96814 339 ft 17 kts 237°
2026-05-05 15:37 52.17534 20.96658 336 ft 15 kts 241°
2026-05-05 15:38 52.17475 20.96527 333 ft 14 kts 238°
2026-05-05 15:38 52.17429 20.96406 333 ft 11 kts 215°
2026-05-05 15:38 52.17363 20.96422 334 ft 10 kts 155°
2026-05-05 15:38 52.17281 20.96493 333 ft 17 kts 151°
2026-05-05 15:39 52.17155 20.96595 333 ft 22 kts 151°
2026-05-05 15:39 52.17004 20.96735 330 ft 26 kts 152°
2026-05-05 15:39 52.16837 20.96879 330 ft 26 kts 152°
2026-05-05 15:39 52.16677 20.97021 333 ft 25 kts 153°
2026-05-05 15:40 52.16539 20.97141 336 ft 18 kts 149°
2026-05-05 15:40 52.16453 20.97149 336 ft 11 kts 270°
2026-05-05 15:40 52.16459 20.97122 335 ft 0 kts 295°
2026-05-05 15:40 52.16477 20.97057 334 ft 21 kts 294°
2026-05-05 15:41 52.16588 20.96666 331 ft 54 kts 292°
2026-05-05 15:41 52.16783 20.95971 340 ft 80 kts 294°
2026-05-05 15:41 52.17046 20.95033 356 ft 102 kts 291°
2026-05-05 15:41 52.17357 20.93971 441 ft 105 kts 291°
2026-05-05 15:42 52.17632 20.92851 547 ft 103 kts 277°
2026-05-05 15:42 52.17679 20.91670 593 ft 111 kts 266°
2026-05-05 15:42 52.17733 20.90334 663 ft 123 kts 272°
2026-05-05 15:42 52.17948 20.88921 766 ft 134 kts 284°
2026-05-05 15:43 52.18279 20.87386 732 ft 156 kts 283°
2026-05-05 15:43 52.18539 20.85655 1055 ft 154 kts 276°
2026-05-05 15:43 52.18673 20.83936 1339 ft 154 kts 272°
2026-05-05 15:43 52.18703 20.82206 1622 ft 154 kts 262°
2026-05-05 15:44 52.18729 20.80449 1913 ft 158 kts 278°
2026-05-05 15:44 52.18985 20.78686 2132 ft 164 kts 279°
2026-05-05 15:44 52.19265 20.76804 2355 ft 171 kts 279°
2026-05-05 15:44 52.19493 20.74914 2616 ft 168 kts 272°
2026-05-05 15:45 52.19555 20.73018 2785 ft 165 kts 264°
2026-05-05 15:45 52.19441 20.71159 2911 ft 165 kts 256°
2026-05-05 15:45 52.19210 20.69298 2980 ft 170 kts 255°
2026-05-05 15:45 52.18973 20.67378 3031 ft 176 kts 256°
2026-05-05 15:46 52.18732 20.65415 3108 ft 180 kts 256°
2026-05-05 15:46 52.18478 20.63386 3205 ft 182 kts 253°
2026-05-05 15:46 52.18098 20.61420 3330 ft 182 kts 249°
2026-05-05 15:46 52.17708 20.59487 3535 ft 178 kts 249°
2026-05-05 15:47 52.17329 20.57577 3753 ft 173 kts 249°
2026-05-05 15:47 52.16967 20.55735 3942 ft 170 kts 249°
2026-05-05 15:47 52.16610 20.53903 4113 ft 167 kts 249°
2026-05-05 15:47 52.16257 20.52087 4271 ft 167 kts 249°
2026-05-05 15:48 52.15902 20.50266 4521 ft 170 kts 249°
2026-05-05 15:48 52.15541 20.48416 4807 ft 172 kts 250°
2026-05-05 15:48 52.15178 20.46559 5107 ft 173 kts 249°
2026-05-05 15:48 52.14816 20.44700 5418 ft 174 kts 250°
2026-05-05 15:49 52.14450 20.42820 5738 ft 174 kts 250°
2026-05-05 15:49 52.14088 20.40951 6059 ft 174 kts 250°
2026-05-05 15:49 52.13728 20.39083 6382 ft 173 kts 250°
2026-05-05 15:49 52.13368 20.37206 6707 ft 173 kts 250°
2026-05-05 15:50 52.13010 20.35335 7031 ft 172 kts 250°
2026-05-05 15:50 52.12657 20.33485 7355 ft 171 kts 249°
2026-05-05 15:50 52.12306 20.31650 7679 ft 171 kts 249°
2026-05-05 15:50 52.11956 20.29818 7979 ft 170 kts 249°
2026-05-05 15:51 52.11604 20.27993 8256 ft 169 kts 248°
2026-05-05 15:51 52.11201 20.26213 8538 ft 167 kts 246°
2026-05-05 15:51 52.10788 20.24438 8807 ft 166 kts 245°
2026-05-05 15:51 52.10382 20.22690 9070 ft 166 kts 245°
2026-05-05 15:52 52.09985 20.20937 9329 ft 165 kts 246°
2026-05-05 15:52 52.09591 20.19169 9587 ft 165 kts 246°
2026-05-05 15:52 52.09206 20.17423 9840 ft 165 kts 246°
2026-05-05 15:52 52.08820 20.15665 10092 ft 164 kts 246°
2026-05-05 15:53 52.08435 20.13903 10341 ft 164 kts 246°
2026-05-05 15:53 52.08057 20.12175 10582 ft 164 kts 246°
2026-05-05 15:53 52.07674 20.10425 10823 ft 164 kts 246°
2026-05-05 15:53 52.07284 20.08657 11017 ft 167 kts 246°
2026-05-05 15:54 52.06881 20.06850 11092 ft 176 kts 246°
2026-05-05 15:54 52.06448 20.04923 11215 ft 183 kts 247°
2026-05-05 15:54 52.06018 20.02967 11375 ft 188 kts 248°
2026-05-05 15:54 52.05598 20.00919 11557 ft 192 kts 249°
2026-05-05 15:55 52.05175 19.98850 11671 ft 199 kts 249°
2026-05-05 15:55 52.04725 19.96658 11714 ft 209 kts 249°
2026-05-05 15:55 52.04258 19.94391 11795 ft 216 kts 249°
2026-05-05 15:55 52.03765 19.92009 11888 ft 223 kts 249°
2026-05-05 15:56 52.03265 19.89599 11967 ft 230 kts 249°
2026-05-05 15:56 52.02739 19.87075 11977 ft 239 kts 249°
2026-05-05 15:56 52.02205 19.84521 12128 ft 241 kts 249°
2026-05-05 15:56 52.01638 19.81821 12414 ft 265 kts 249°
2026-05-05 15:57 52.01015 19.78892 13014 ft 283 kts 249°
2026-05-05 15:57 52.00392 19.75973 14201 ft 278 kts 249°
2026-05-05 15:57 51.99762 19.73042 15457 ft 271 kts 249°
2026-05-05 15:57 51.99164 19.70273 16424 ft 258 kts 249°
2026-05-05 15:58 51.98592 19.67632 17275 ft 244 kts 250°
2026-05-05 15:58 51.98039 19.65100 18025 ft 234 kts 250°
2026-05-05 15:58 51.97506 19.62680 18685 ft 226 kts 250°
2026-05-05 15:58 51.96972 19.60283 19195 ft 224 kts 250°
2026-05-05 15:59 51.96462 19.57935 19674 ft 223 kts 250°
2026-05-05 15:59 51.95955 19.55545 20142 ft 223 kts 251°
2026-05-05 15:59 51.95461 19.53213 20590 ft 222 kts 251°
2026-05-05 15:59 51.94956 19.50830 21038 ft 222 kts 251°
2026-05-05 16:00 51.94443 19.48419 21325 ft 228 kts 251°
2026-05-05 16:00 51.93916 19.45951 21582 ft 236 kts 251°
2026-05-05 16:00 51.93373 19.43414 21792 ft 246 kts 251°
2026-05-05 16:00 51.92791 19.40702 21803 ft 263 kts 251°
2026-05-05 16:01 51.92171 19.37823 21783 ft 280 kts 251°
2026-05-05 16:01 51.91511 19.34762 21757 ft 296 kts 250°
2026-05-05 16:01 51.90812 19.31536 21785 ft 305 kts 250°
2026-05-05 16:01 51.90112 19.28310 21772 ft 303 kts 250°
2026-05-05 16:02 51.89416 19.25104 21765 ft 299 kts 250°
2026-05-05 16:02 51.88720 19.21900 21762 ft 298 kts 250°
2026-05-05 16:02 51.88035 19.18744 21763 ft 297 kts 250°
2026-05-05 16:02 51.87360 19.15630 21763 ft 296 kts 250°
2026-05-05 16:03 51.86678 19.12488 21764 ft 295 kts 250°
2026-05-05 16:03 51.85991 19.09321 21764 ft 295 kts 250°
2026-05-05 16:03 51.85318 19.06219 21764 ft 294 kts 250°
2026-05-05 16:03 51.84635 19.03074 21764 ft 293 kts 250°
2026-05-05 16:04 51.83964 18.99983 21765 ft 293 kts 250°
2026-05-05 16:04 51.83288 18.96873 21764 ft 293 kts 250°
2026-05-05 16:04 51.82611 18.93763 21769 ft 297 kts 250°
2026-05-05 16:04 51.81921 18.90592 21768 ft 305 kts 250°
2026-05-05 16:05 51.81207 18.87318 21766 ft 312 kts 250°
2026-05-05 16:05 51.80480 18.83985 21765 ft 318 kts 250°
2026-05-05 16:05 51.79733 18.80563 21765 ft 324 kts 250°
2026-05-05 16:05 51.78989 18.77165 21764 ft 329 kts 250°
2026-05-05 16:06 51.78229 18.73691 21763 ft 333 kts 250°
2026-05-05 16:06 51.77460 18.70166 21764 ft 337 kts 250°
2026-05-05 16:06 51.76680 18.66578 21765 ft 341 kts 250°
2026-05-05 16:06 51.75892 18.62954 21864 ft 341 kts 250°
2026-05-05 16:07 51.75091 18.59312 21556 ft 353 kts 250°
2026-05-05 16:07 51.74262 18.55562 21482 ft 356 kts 250°
2026-05-05 16:07 51.73426 18.51801 21473 ft 358 kts 250°
2026-05-05 16:07 51.72572 18.48019 21297 ft 365 kts 250°
2026-05-05 16:08 51.71672 18.44170 21224 ft 367 kts 249°
2026-05-05 16:08 51.70772 18.40376 21392 ft 362 kts 249°
2026-05-05 16:08 51.69865 18.36578 21549 ft 359 kts 249°
2026-05-05 16:08 51.68966 18.32823 21699 ft 356 kts 248°
2026-05-05 16:09 51.68082 18.29141 21840 ft 354 kts 248°
2026-05-05 16:09 51.67188 18.25429 21976 ft 353 kts 248°
2026-05-05 16:09 51.66304 18.21763 22107 ft 351 kts 248°
2026-05-05 16:09 51.65414 18.18080 22234 ft 350 kts 248°
2026-05-05 16:10 51.64545 18.14476 22354 ft 349 kts 248°
2026-05-05 16:10 51.63670 18.10848 22472 ft 349 kts 248°
2026-05-05 16:10 51.62786 18.07186 22589 ft 348 kts 249°
2026-05-05 16:10 51.61912 18.03565 22702 ft 348 kts 249°
2026-05-05 16:11 51.61041 17.99947 22813 ft 347 kts 249°
2026-05-05 16:11 51.57956 17.89539 23293 ft 343 kts 238°
2026-05-05 16:12 51.56593 17.86333 23455 ft 342 kts 234°
2026-05-05 16:12 51.53212 17.81036 23533 ft 351 kts 217°
2026-05-05 16:13 51.47173 17.73523 22629 ft 379 kts 221°
2026-05-05 16:13 51.45136 17.70758 22519 ft 383 kts 221°
2026-05-05 16:13 51.43286 17.68230 22406 ft 387 kts 222°
2026-05-05 16:14 51.39011 17.62351 22162 ft 392 kts 222°
2026-05-05 16:14 51.34807 17.56752 21934 ft 397 kts 220°
2026-05-05 16:15 51.30543 17.51213 21738 ft 399 kts 220°
2026-05-05 16:15 51.26317 17.45556 21798 ft 394 kts 224°
2026-05-05 16:16 51.22331 17.39586 21751 ft 393 kts 226°
2026-05-05 16:16 51.18649 17.33233 21722 ft 393 kts 228°
2026-05-05 16:17 51.15023 17.26678 21726 ft 392 kts 229°
2026-05-05 16:17 51.13249 17.23446 21729 ft 392 kts 229°
2026-05-05 16:18 51.09684 17.16925 21732 ft 392 kts 229°
2026-05-05 16:18 51.07894 17.13643 21733 ft 392 kts 229°
2026-05-05 16:18 51.04331 17.07127 21743 ft 392 kts 228°
2026-05-05 16:19 51.02444 17.03976 21754 ft 392 kts 225°
2026-05-05 16:19 51.00459 17.01054 21722 ft 393 kts 221°
2026-05-05 16:19 50.96124 16.95789 21734 ft 393 kts 214°
2026-05-05 16:20 50.91583 16.91037 21783 ft 391 kts 220°
2026-05-05 16:20 50.87869 16.84773 21672 ft 394 kts 229°
2026-05-05 16:21 50.84286 16.78374 21738 ft 392 kts 229°
2026-05-05 16:22 50.78711 16.68975 21726 ft 392 kts 226°
2026-05-05 16:22 50.74926 16.62916 21734 ft 392 kts 226°
2026-05-05 16:23 50.71120 16.56888 21734 ft 393 kts 225°
2026-05-05 16:23 50.69173 16.53814 21734 ft 393 kts 225°
2026-05-05 16:23 50.65315 16.47732 21733 ft 394 kts 226°
2026-05-05 16:24 50.63376 16.44678 21733 ft 394 kts 226°
2026-05-05 16:24 50.61461 16.41661 21732 ft 394 kts 226°
2026-05-05 16:24 50.57620 16.35610 21732 ft 395 kts 226°
2026-05-05 16:25 50.55696 16.32576 21733 ft 395 kts 225°
2026-05-05 16:25 50.51883 16.26564 21732 ft 395 kts 225°
2026-05-05 16:25 50.49876 16.23443 21747 ft 395 kts 224°
2026-05-05 16:26 50.45692 16.17965 21713 ft 396 kts 218°
2026-05-05 16:26 50.41313 16.12803 21737 ft 394 kts 217°
2026-05-05 16:27 50.39354 16.10518 21735 ft 394 kts 217°
2026-05-05 16:27 50.36958 16.07751 21741 ft 393 kts 217°
2026-05-05 16:27 50.34962 16.05471 21732 ft 393 kts 217°
2026-05-05 16:27 50.33192 16.03454 21731 ft 393 kts 217°
2026-05-05 16:28 50.30528 16.00422 21734 ft 392 kts 217°
2026-05-05 16:28 50.28525 15.98142 21733 ft 392 kts 217°
2026-05-05 16:28 50.26175 15.95469 21735 ft 391 kts 217°
2026-05-05 16:28 50.23971 15.92960 21734 ft 391 kts 217°
2026-05-05 16:29 50.21791 15.90479 21733 ft 392 kts 217°
2026-05-05 16:29 50.19569 15.87950 21733 ft 393 kts 217°
2026-05-05 16:29 50.17372 15.85445 21733 ft 394 kts 217°
2026-05-05 16:29 50.15183 15.82946 21732 ft 394 kts 217°
2026-05-05 16:30 50.12971 15.80419 21732 ft 395 kts 217°
2026-05-05 16:30 50.10743 15.77871 21732 ft 395 kts 217°
2026-05-05 16:30 50.08541 15.75351 21732 ft 396 kts 217°
2026-05-05 16:30 50.06308 15.72793 21732 ft 396 kts 217°
2026-05-05 16:31 50.04122 15.70284 21732 ft 396 kts 217°
2026-05-05 16:31 50.01902 15.67725 21732 ft 396 kts 217°
2026-05-05 16:31 49.99692 15.65172 21732 ft 396 kts 217°
2026-05-05 16:31 49.97474 15.62603 21732 ft 396 kts 217°
2026-05-05 16:32 49.95276 15.60055 21733 ft 396 kts 218°
2026-05-05 16:32 49.93081 15.57506 21733 ft 396 kts 218°
2026-05-05 16:32 49.90878 15.54944 21734 ft 396 kts 218°
2026-05-05 16:32 49.88682 15.52389 21735 ft 396 kts 218°
2026-05-05 16:33 49.86491 15.49838 21735 ft 396 kts 218°
2026-05-05 16:33 49.84301 15.47287 21735 ft 396 kts 218°
2026-05-05 16:33 49.82125 15.44749 21735 ft 396 kts 218°
2026-05-05 16:33 49.80118 15.42409 21735 ft 396 kts 218°
2026-05-05 16:34 49.77813 15.39721 21734 ft 396 kts 218°
2026-05-05 16:34 49.75633 15.37177 21734 ft 396 kts 218°
2026-05-05 16:34 49.73425 15.34565 21748 ft 396 kts 219°
2026-05-05 16:34 49.71405 15.31700 21760 ft 396 kts 226°
2026-05-05 16:35 49.69649 15.28494 21742 ft 397 kts 233°
2026-05-05 16:35 49.68140 15.24908 21736 ft 398 kts 240°
2026-05-05 16:35 49.66948 15.21100 21735 ft 399 kts 246°
2026-05-05 16:35 49.65914 15.17107 21729 ft 397 kts 242°
2026-05-05 16:36 49.64186 15.13833 21771 ft 396 kts 221°
2026-05-05 16:36 49.61932 15.11419 21719 ft 398 kts 211°
2026-05-05 16:36 49.59530 15.09442 21658 ft 399 kts 210°
2026-05-05 16:36 49.57111 15.07418 21705 ft 396 kts 210°
2026-05-05 16:37 49.54738 15.05388 21725 ft 395 kts 211°
2026-05-05 16:37 49.52390 15.03265 21771 ft 393 kts 215°
2026-05-05 16:37 49.50246 15.00734 21730 ft 393 kts 220°
2026-05-05 16:37 49.48098 14.98079 21680 ft 393 kts 219°
2026-05-05 16:38 49.45971 14.95473 21731 ft 392 kts 219°
2026-05-05 16:38 49.43859 14.92900 21734 ft 391 kts 219°
2026-05-05 16:38 49.41713 14.90295 21734 ft 391 kts 219°
2026-05-05 16:38 49.39579 14.87711 21734 ft 391 kts 219°
2026-05-05 16:39 49.37441 14.85126 21733 ft 391 kts 219°
2026-05-05 16:39 49.35331 14.82580 21733 ft 391 kts 219°
2026-05-05 16:39 49.33173 14.79977 21732 ft 391 kts 219°
2026-05-05 16:39 49.31072 14.77446 21732 ft 390 kts 219°
2026-05-05 16:40 49.28921 14.74858 21732 ft 390 kts 219°
2026-05-05 16:40 49.27725 14.73419 21735 ft 395 kts 218°
2026-05-05 16:40 49.25505 14.70736 21738 ft 420 kts 218°
2026-05-05 16:40 49.23151 14.67857 21737 ft 444 kts 219°
2026-05-05 16:41 49.20701 14.64868 21736 ft 456 kts 219°
2026-05-05 16:41 49.18235 14.61888 21735 ft 460 kts 219°
2026-05-05 16:41 49.15710 14.58859 21733 ft 462 kts 219°
2026-05-05 16:41 49.13177 14.55836 21726 ft 462 kts 219°
2026-05-05 16:42 49.10685 14.52874 21713 ft 462 kts 219°
2026-05-05 16:42 49.08141 14.49859 21707 ft 462 kts 219°
2026-05-05 16:42 49.05644 14.46906 21705 ft 462 kts 219°
2026-05-05 16:42 49.03103 14.43903 21705 ft 462 kts 219°
2026-05-05 16:43 49.00552 14.40892 21704 ft 462 kts 219°
2026-05-05 16:43 48.98022 14.37907 21703 ft 462 kts 219°
2026-05-05 16:43 48.95497 14.34930 21702 ft 462 kts 218°
2026-05-05 16:43 48.92948 14.31930 21703 ft 463 kts 218°
2026-05-05 16:44 48.90425 14.28968 21704 ft 463 kts 218°
2026-05-05 16:44 48.87882 14.25984 21705 ft 463 kts 218°
2026-05-05 16:44 48.85338 14.23003 21705 ft 464 kts 218°
2026-05-05 16:44 48.82802 14.20022 21706 ft 467 kts 218°
2026-05-05 16:45 48.80253 14.17005 21705 ft 468 kts 218°
2026-05-05 16:45 48.77694 14.13962 21703 ft 468 kts 218°
2026-05-05 16:45 48.75154 14.10927 21703 ft 468 kts 218°
2026-05-05 16:45 48.72590 14.07855 21703 ft 470 kts 218°
2026-05-05 16:46 48.70050 14.04800 21704 ft 471 kts 218°
2026-05-05 16:46 48.67592 14.01833 21705 ft 471 kts 218°
2026-05-05 16:46 48.64982 13.98677 21705 ft 471 kts 218°
2026-05-05 16:46 48.62427 13.95585 21703 ft 469 kts 218°
2026-05-05 16:47 48.59894 13.92517 21703 ft 464 kts 218°
2026-05-05 16:47 48.57366 13.89456 21702 ft 463 kts 218°
2026-05-05 16:47 48.54911 13.86484 21703 ft 462 kts 218°
2026-05-05 16:47 48.52396 13.83439 21705 ft 462 kts 218°
2026-05-05 16:48 48.49877 13.80393 21705 ft 462 kts 218°
2026-05-05 16:48 48.47371 13.77365 21705 ft 462 kts 218°
2026-05-05 16:48 48.44864 13.74336 21704 ft 462 kts 218°
2026-05-05 16:48 48.42535 13.71523 21703 ft 461 kts 218°
2026-05-05 16:49 48.39985 13.68433 21702 ft 460 kts 218°
2026-05-05 16:49 48.37501 13.65414 21703 ft 460 kts 218°
2026-05-05 16:49 48.35029 13.62405 21704 ft 460 kts 218°
2026-05-05 16:49 48.32518 13.59364 21718 ft 459 kts 218°
2026-05-05 16:50 48.30002 13.56503 21701 ft 460 kts 216°
2026-05-05 16:50 48.27434 13.53650 21682 ft 459 kts 216°
2026-05-05 16:50 48.24879 13.50835 21704 ft 459 kts 216°
2026-05-05 16:50 48.22305 13.48018 21703 ft 457 kts 216°
2026-05-05 16:51 48.19724 13.45213 21702 ft 455 kts 216°
2026-05-05 16:51 48.17171 13.42457 21740 ft 453 kts 216°
2026-05-05 16:51 48.14634 13.39734 21826 ft 452 kts 216°
2026-05-05 16:51 48.12065 13.36987 21791 ft 454 kts 216°
2026-05-05 16:52 48.09495 13.34246 21790 ft 453 kts 215°
2026-05-05 16:52 48.06910 13.31495 21792 ft 453 kts 215°
2026-05-05 16:52 48.04369 13.28795 21792 ft 453 kts 215°
2026-05-05 16:52 48.01786 13.26052 21793 ft 453 kts 215°
2026-05-05 16:53 47.99216 13.23324 21794 ft 453 kts 215°
2026-05-05 16:53 47.96692 13.20640 21794 ft 451 kts 215°
2026-05-05 16:53 47.94135 13.17916 21793 ft 451 kts 215°
2026-05-05 16:53 47.91587 13.15195 21791 ft 450 kts 215°
2026-05-05 16:54 47.89065 13.12499 21793 ft 450 kts 215°
2026-05-05 16:54 47.86521 13.09775 21792 ft 450 kts 215°
2026-05-05 16:54 47.84000 13.07073 21791 ft 451 kts 215°
2026-05-05 16:54 47.81450 13.04338 21791 ft 451 kts 215°
2026-05-05 16:55 47.78922 13.01624 21793 ft 450 kts 215°
2026-05-05 16:55 47.76380 12.98893 21794 ft 450 kts 216°
2026-05-05 16:55 47.73998 12.95893 21867 ft 450 kts 223°
2026-05-05 16:55 47.71965 12.92446 21742 ft 452 kts 230°
2026-05-05 16:56 47.69982 12.88819 21746 ft 449 kts 230°
2026-05-05 16:56 47.68024 12.85246 21776 ft 449 kts 230°
2026-05-05 16:56 47.66044 12.81643 21786 ft 449 kts 230°
2026-05-05 16:56 47.64087 12.78088 21789 ft 449 kts 230°
2026-05-05 16:57 47.62109 12.74500 21794 ft 449 kts 230°
2026-05-05 16:57 47.60139 12.70938 21794 ft 450 kts 230°
2026-05-05 16:57 47.58188 12.67424 21551 ft 433 kts 230°
2026-05-05 16:57 47.56371 12.64155 21060 ft 390 kts 230°
2026-05-05 16:58 47.54752 12.61238 20542 ft 350 kts 230°
2026-05-05 16:58 47.53265 12.58554 19995 ft 321 kts 230°
2026-05-05 16:58 47.51912 12.56118 19195 ft 307 kts 230°
2026-05-05 16:58 47.50576 12.53715 18321 ft 296 kts 230°
2026-05-05 16:59 47.49297 12.51425 17470 ft 288 kts 230°
2026-05-05 16:59 47.48043 12.49192 16627 ft 282 kts 230°
2026-05-05 16:59 47.46809 12.47010 15823 ft 276 kts 230°
2026-05-05 16:59 47.45597 12.44884 15054 ft 270 kts 230°
2026-05-05 17:00 47.44410 12.42822 14515 ft 258 kts 230°
2026-05-05 17:00 47.43272 12.40857 14027 ft 250 kts 230°
2026-05-05 17:00 47.42151 12.38932 13500 ft 245 kts 230°
2026-05-05 17:00 47.41168 12.36949 13123 ft 236 kts 240°
2026-05-05 17:01 47.40452 12.34846 12885 ft 222 kts 246°
2026-05-05 17:01 47.39948 12.32815 12849 ft 202 kts 253°
2026-05-05 17:01 47.39777 12.30780 12924 ft 209 kts 272°
2026-05-05 17:01 47.39990 12.28546 13006 ft 228 kts 277°
2026-05-05 17:02 47.40229 12.26125 12995 ft 249 kts 276°
2026-05-05 17:02 47.40485 12.23521 12987 ft 267 kts 276°
2026-05-05 17:02 47.40764 12.20700 13049 ft 281 kts 276°
2026-05-05 17:02 47.41056 12.17817 13045 ft 291 kts 276°
2026-05-05 17:03 47.41365 12.14863 13029 ft 289 kts 276°
2026-05-05 17:03 47.41675 12.11963 13022 ft 287 kts 276°
2026-05-05 17:03 47.41993 12.09036 13018 ft 285 kts 277°
2026-05-05 17:03 47.42310 12.06147 13017 ft 283 kts 277°
2026-05-05 17:04 47.42624 12.03314 13017 ft 282 kts 277°
2026-05-05 17:04 47.42941 12.00468 13017 ft 281 kts 277°
2026-05-05 17:04 47.43226 11.97616 13037 ft 278 kts 272°
2026-05-05 17:04 47.43228 11.94789 13041 ft 275 kts 262°
2026-05-05 17:05 47.42889 11.92025 13010 ft 274 kts 252°
2026-05-05 17:05 47.42212 11.89390 13019 ft 276 kts 243°
2026-05-05 17:05 47.41393 11.86785 12981 ft 283 kts 244°
2026-05-05 17:05 47.40566 11.84136 13028 ft 286 kts 244°
2026-05-05 17:06 47.39724 11.81433 13036 ft 290 kts 244°
2026-05-05 17:06 47.38884 11.78735 13027 ft 293 kts 244°
2026-05-05 17:06 47.38028 11.75979 13023 ft 296 kts 244°
2026-05-05 17:06 47.37159 11.73184 13013 ft 299 kts 244°
2026-05-05 17:07 47.36298 11.70410 12999 ft 301 kts 244°
2026-05-05 17:07 47.35424 11.67590 12994 ft 302 kts 244°
2026-05-05 17:07 47.34574 11.64758 13007 ft 303 kts 246°
2026-05-05 17:07 47.33854 11.61822 13013 ft 305 kts 251°
2026-05-05 17:08 47.33265 11.58831 12978 ft 308 kts 253°
2026-05-05 17:08 47.32770 11.55739 12995 ft 308 kts 257°
2026-05-05 17:08 47.32555 11.52569 13006 ft 311 kts 265°
2026-05-05 17:08 47.32464 11.49305 12953 ft 328 kts 265°
2026-05-05 17:09 47.32346 11.45881 13007 ft 341 kts 265°
2026-05-05 17:09 47.32210 11.42366 13011 ft 352 kts 265°
2026-05-05 17:09 47.32077 11.38721 12991 ft 363 kts 265°
2026-05-05 17:09 47.31949 11.34965 12990 ft 371 kts 265°
2026-05-05 17:10 47.31817 11.31119 12989 ft 378 kts 265°
2026-05-05 17:10 47.31683 11.27216 12990 ft 382 kts 265°
2026-05-05 17:10 47.31561 11.23529 12977 ft 343 kts 265°
2026-05-05 17:10 47.31460 11.20169 12971 ft 311 kts 265°
2026-05-05 17:11 47.31380 11.17155 12967 ft 290 kts 265°
2026-05-05 17:11 47.31308 11.14248 12977 ft 287 kts 265°
2026-05-05 17:11 47.31309 11.11329 13018 ft 284 kts 271°
2026-05-05 17:11 47.31554 11.08469 12979 ft 284 kts 275°
2026-05-05 17:12 47.31840 11.05539 12943 ft 283 kts 276°
2026-05-05 17:12 47.32118 11.02711 12964 ft 282 kts 276°
2026-05-05 17:12 47.32413 10.99828 12992 ft 289 kts 276°
2026-05-05 17:12 47.32737 10.96784 13002 ft 304 kts 276°
2026-05-05 17:13 47.33067 10.93664 12996 ft 314 kts 277°
2026-05-05 17:13 47.33404 10.90477 12993 ft 321 kts 277°
2026-05-05 17:13 47.33749 10.87187 12992 ft 327 kts 277°
2026-05-05 17:13 47.34096 10.83868 12991 ft 332 kts 277°
2026-05-05 17:14 47.34450 10.80465 12989 ft 336 kts 277°
2026-05-05 17:14 47.34800 10.77096 12989 ft 331 kts 277°
2026-05-05 17:14 47.35202 10.73909 12977 ft 301 kts 280°
2026-05-05 17:14 47.35620 10.71010 12947 ft 278 kts 280°
2026-05-05 17:15 47.35970 10.68297 12982 ft 266 kts 276°
2026-05-05 17:15 47.36132 10.65820 13485 ft 213 kts 270°
2026-05-05 17:15 47.36136 10.63964 13756 ft 154 kts 264°
2026-05-05 17:15 47.35894 10.62578 13468 ft 139 kts 227°
2026-05-05 17:16 47.35012 10.62189 13327 ft 137 kts 172°
2026-05-05 17:16 47.34119 10.62711 13246 ft 141 kts 150°
2026-05-05 17:16 47.33426 10.63775 13118 ft 146 kts 136°
2026-05-05 17:16 47.32719 10.64835 13020 ft 146 kts 141°
2026-05-05 17:17 47.31920 10.65815 12834 ft 152 kts 143°
2026-05-05 17:17 47.31115 10.66821 12666 ft 155 kts 142°
2026-05-05 17:17 47.30422 10.68052 12486 ft 160 kts 126°
2026-05-05 17:17 47.29983 10.69542 12267 ft 160 kts 111°
2026-05-05 17:18 47.29708 10.71113 12056 ft 160 kts 108°
2026-05-05 17:18 47.29484 10.72724 11815 ft 162 kts 98°
2026-05-05 17:18 47.29565 10.74370 11569 ft 161 kts 88°
2026-05-05 17:18 47.29662 10.76001 11311 ft 160 kts 88°
2026-05-05 17:19 47.29836 10.77599 11131 ft 156 kts 84°
2026-05-05 17:19 47.30022 10.79132 11096 ft 148 kts 83°
2026-05-05 17:19 47.30212 10.80613 11023 ft 144 kts 83°
2026-05-05 17:19 47.30397 10.82053 10929 ft 143 kts 83°
2026-05-05 17:20 47.30526 10.83498 10820 ft 142 kts 89°
2026-05-05 17:20 47.30598 10.84958 10705 ft 143 kts 89°
2026-05-05 17:20 47.30671 10.86425 10592 ft 143 kts 89°
2026-05-05 17:20 47.30741 10.87877 10483 ft 143 kts 89°
2026-05-05 17:21 47.30800 10.89348 10376 ft 142 kts 92°
2026-05-05 17:21 47.30766 10.90786 10275 ft 141 kts 96°
2026-05-05 17:21 47.30724 10.92251 10183 ft 145 kts 95°
2026-05-05 17:22 47.30637 10.95240 10031 ft 145 kts 95°
2026-05-05 17:22 47.30590 10.96721 9956 ft 145 kts 95°
2026-05-05 17:22 47.30541 10.98204 9829 ft 147 kts 95°
2026-05-05 17:22 47.30489 10.99706 9683 ft 148 kts 96°
2026-05-05 17:23 47.30435 11.01229 9542 ft 148 kts 95°
2026-05-05 17:23 47.30265 11.02698 9414 ft 145 kts 108°
2026-05-05 17:23 47.29997 11.04151 9275 ft 146 kts 107°
2026-05-05 17:23 47.29746 11.05609 9108 ft 149 kts 106°
2026-05-05 17:24 47.29497 11.07079 8893 ft 149 kts 106°
2026-05-05 17:24 47.29249 11.08548 8655 ft 143 kts 106°
2026-05-05 17:24 47.29020 11.09927 8352 ft 138 kts 106°
2026-05-05 17:24 47.28796 11.11280 7998 ft 138 kts 106°
2026-05-05 17:25 47.28567 11.12660 7638 ft 138 kts 106°
2026-05-05 17:25 47.28416 11.13561 7405 ft 139 kts 106°
2026-05-05 17:25 47.28097 11.15423 6900 ft 141 kts 106°
2026-05-05 17:25 47.27808 11.16793 6540 ft 141 kts 112°
2026-05-05 17:26 47.27404 11.18093 6185 ft 141 kts 117°
2026-05-05 17:26 47.26975 11.19384 5810 ft 142 kts 117°
2026-05-05 17:26 47.26537 11.20686 5470 ft 140 kts 116°
2026-05-05 17:26 47.26107 11.21943 5146 ft 139 kts 116°
2026-05-05 17:27 47.25663 11.23196 4825 ft 139 kts 117°
2026-05-05 17:27 47.25267 11.24488 4513 ft 137 kts 103°
2026-05-05 17:27 47.25137 11.25827 4218 ft 126 kts 88°
2026-05-05 17:27 47.25224 11.27024 3938 ft 113 kts 79°
2026-05-05 17:28 47.25361 11.28129 3621 ft 108 kts 79°
2026-05-05 17:28 47.25480 11.29189 3262 ft 104 kts 83°
2026-05-05 17:28 47.25583 11.30235 2871 ft 104 kts 84°
2026-05-05 17:28 47.25693 11.31289 2527 ft 105 kts 89°
2026-05-05 17:29 47.25815 11.32352 2202 ft 108 kts 91°
2026-05-05 17:29 47.25934 11.33453 1969 ft 106 kts 92°
2026-05-05 17:29 47.26044 11.34423 1905 ft 83 kts 90°
2026-05-05 17:29 47.26093 11.35130 1899 ft 48 kts 68°
2026-05-05 17:30 47.26093 11.35280 1898 ft 10 kts 238°
2026-05-05 17:30 47.26041 11.35262 1898 ft 6 kts 168°
2026-05-05 17:30 47.25997 11.35273 1898 ft 6 kts 172°
2026-05-05 17:30 47.25950 11.35283 1898 ft 7 kts 171°
2026-05-05 17:31 47.25925 11.35347 1898 ft 9 kts 77°
2026-05-05 17:31 47.25881 11.35410 1897 ft 9 kts 167°
2026-05-05 17:31 47.25864 11.35400 1897 ft 0 kts 271°